• In Österreich
  • Länderverzeichnis
  • Für 7 Tage
  • Wassertemperatur
  • Satellitenkarten
  • Wetterkarte
  • News
  • Widgets
  • user-avatar
    Anmelden

    Stündliche Wetter Saurimo

    Heute, 24 September, Montag

    Zeit Temperatur Niederschläge Wind Luftdruck Luftfeuchtigkeit
    00:00 +28°C° 0 mm 1 m/S 669 mmHg 29%
    01:00 +25°C° 0 mm 1 m/S 669 mmHg 35%
    02:00 +25°C° 0 mm 1 m/S 669 mmHg 35%
    03:00 +25°C° 0 mm 1 m/S 669 mmHg 36%
    04:00 +25°C° 0 mm 1 m/S 669 mmHg 36%
    05:00 +26°C° 0 mm 2 m/S 669 mmHg 37%
    06:00 +26°C° 0 mm 2 m/S 670 mmHg 38%
    07:00 +27°C° 0 mm 2 m/S 671 mmHg 39%
    08:00 +30°C° 0 mm 2 m/S 671 mmHg 34%
    09:00 +34°C° 0 mm 2 m/S 671 mmHg 30%
    10:00 +36°C° 0 mm 2 m/S 672 mmHg 26%
    11:00 +37°C° 0 mm 2 m/S 671 mmHg 24%
    12:00 +37°C° 0 mm 2 m/S 671 mmHg 21%
    13:00 +35°C° 0 mm 2 m/S 671 mmHg 29%
    14:00 +34°C° 0 mm 2 m/S 670 mmHg 30%
    15:00 +34°C° 0 mm 2 m/S 670 mmHg 31%
    16:00 +33°C° 0 mm 1 m/S 670 mmHg 32%
    17:00 +31°C° 0 mm 1 m/S 670 mmHg 36%
    18:00 +29°C° 0 mm 1 m/S 670 mmHg 40%
    19:00 +28°C° 0 mm 1 m/S 670 mmHg 44%
    20:00 +27°C° 0 mm 1 m/S 670 mmHg 48%
    21:00 +26°C° 0 mm 1 m/S 670 mmHg 51%
    22:00 +25°C° 0 mm 1 m/S 670 mmHg 54%
    23:00 +25°C° 0 mm 1 m/S 670 mmHg 57%

    Morgen, 25 September, Dienstag

    Zeit Temperatur Niederschläge Wind Luftdruck Luftfeuchtigkeit
    00:00 +24°C° 0 mm 1 m/S 669 mmHg 60%
    01:00 +24°C° 0 mm 1 m/S 669 mmHg 62%
    02:00 +23°C° 0 mm 1 m/S 669 mmHg 64%
    03:00 +23°C° 0 mm 1 m/S 669 mmHg 66%
    04:00 +22°C° 0 mm 1 m/S 669 mmHg 67%
    05:00 +23°C° 0 mm 2 m/S 670 mmHg 64%
    06:00 +24°C° 0 mm 2 m/S 670 mmHg 62%
    07:00 +26°C° 0 mm 2 m/S 671 mmHg 59%
    08:00 +29°C° 0 mm 2 m/S 672 mmHg 49%
    09:00 +32°C° 0 mm 2 m/S 672 mmHg 40%
    10:00 +36°C° 0 mm 2 m/S 673 mmHg 31%
    11:00 +36°C° 0 mm 2 m/S 672 mmHg 29%
    12:00 +36°C° 0 mm 2 m/S 671 mmHg 27%
    13:00 +35°C° 0 mm 2 m/S 670 mmHg 25%
    14:00 +35°C° 0 mm 2 m/S 670 mmHg 26%
    15:00 +34°C° 0 mm 1 m/S 670 mmHg 27%
    16:00 +33°C° 0 mm 1 m/S 669 mmHg 28%
    17:00 +32°C° 0.1 mm 1 m/S 669 mmHg 32%
    18:00 +30°C° 0.1 mm 1 m/S 669 mmHg 35%
    19:00 +29°C° 0.1 mm 1 m/S 670 mmHg 38%
    20:00 +28°C° 0 mm 1 m/S 670 mmHg 40%
    21:00 +27°C° 0 mm 1 m/S 670 mmHg 42%
    22:00 +27°C° 0 mm 1 m/S 670 mmHg 44%
    23:00 +26°C° 0 mm 1 m/S 670 mmHg 45%

    übermorgen, 26 September, Mittwoch

    Zeit Temperatur Niederschläge Wind Luftdruck Luftfeuchtigkeit
    00:00 +26°C° 0 mm 1 m/S 670 mmHg 47%
    01:00 +26°C° 0 mm 1 m/S 669 mmHg 48%
    02:00 +25°C° 0 mm 1 m/S 669 mmHg 52%
    03:00 +24°C° 0 mm 1 m/S 669 mmHg 56%
    04:00 +23°C° 0 mm 1 m/S 668 mmHg 60%
    05:00 +24°C° 0 mm 1 m/S 669 mmHg 57%
    06:00 +25°C° 0 mm 1 m/S 670 mmHg 54%
    07:00 +27°C° 0 mm 1 m/S 671 mmHg 51%
    08:00 +30°C° 0 mm 1 m/S 671 mmHg 43%
    09:00 +33°C° 0 mm 1 m/S 672 mmHg 35%
    10:00 +37°C° 0 mm 1 m/S 673 mmHg 27%
    11:00 +38°C° 0 mm 2 m/S 672 mmHg 24%
    12:00 +38°C° 0 mm 2 m/S 671 mmHg 22%
    13:00 +39°C° 0 mm 2 m/S 670 mmHg 19%
    14:00 +38°C° 0 mm 2 m/S 669 mmHg 20%
    15:00 +38°C° 0 mm 2 m/S 669 mmHg 20%
    16:00 +37°C° 0 mm 2 m/S 669 mmHg 21%
    17:00 +34°C° 0 mm 1 m/S 669 mmHg 24%
    18:00 +32°C° 0 mm 1 m/S 669 mmHg 27%
    19:00 +30°C° 0 mm 1 m/S 669 mmHg 30%
    20:00 +29°C° 0 mm 1 m/S 669 mmHg 33%
    21:00 +28°C° 0 mm 1 m/S 670 mmHg 35%
    22:00 +27°C° 0 mm 1 m/S 670 mmHg 37%
    23:00 +27°C° 0 mm 1 m/S 669 mmHg 39%

    27 September, Donnerstag

    Zeit Temperatur Niederschläge Wind Luftdruck Luftfeuchtigkeit
    00:00 +27°C° 0 mm 1 m/S 669 mmHg 41%
    01:00 +26°C° 0 mm 1 m/S 669 mmHg 43%
    02:00 +25°C° 0 mm 1 m/S 668 mmHg 46%
    03:00 +25°C° 0 mm 1 m/S 668 mmHg 49%
    04:00 +24°C° 0 mm 1 m/S 668 mmHg 52%
    05:00 +25°C° 0 mm 2 m/S 668 mmHg 50%
    06:00 +26°C° 0 mm 2 m/S 669 mmHg 48%
    07:00 +28°C° 0 mm 2 m/S 670 mmHg 45%
    08:00 +32°C° 0 mm 2 m/S 671 mmHg 37%
    09:00 +36°C° 0 mm 1 m/S 672 mmHg 29%
    10:00 +40°C° 0 mm 1 m/S 672 mmHg 21%
    11:00 +40°C° 0 mm 1 m/S 671 mmHg 21%
    12:00 +39°C° 0 mm 1 m/S 670 mmHg 21%
    13:00 +37°C° 0 mm 1 m/S 669 mmHg 21%
    14:00 +37°C° 0.1 mm 2 m/S 669 mmHg 24%
    15:00 +35°C° 0.1 mm 2 m/S 668 mmHg 27%
    16:00 +34°C° 0.1 mm 2 m/S 668 mmHg 30%
    17:00 +31°C° 0.2 mm 2 m/S 668 mmHg 35%
    18:00 +29°C° 0.2 mm 2 m/S 668 mmHg 40%
    19:00 +27°C° 0.2 mm 1 m/S 668 mmHg 46%
    20:00 +26°C° 0 mm 1 m/S 669 mmHg 48%
    21:00 +26°C° 0 mm 1 m/S 669 mmHg 50%
    22:00 +25°C° 0 mm 1 m/S 669 mmHg 53%
    23:00 +25°C° 0 mm 1 m/S 669 mmHg 54%

    28 September, Freitag

    Zeit Temperatur Niederschläge Wind Luftdruck Luftfeuchtigkeit
    00:00 +24°C° 0 mm 1 m/S 668 mmHg 56%
    01:00 +24°C° 0 mm 1 m/S 667 mmHg 58%
    02:00 +23°C° 0 mm 1 m/S 667 mmHg 60%
    03:00 +23°C° 0 mm 1 m/S 667 mmHg 61%
    04:00 +22°C° 0 mm 1 m/S 667 mmHg 63%
    05:00 +24°C° 0 mm 1 m/S 668 mmHg 60%
    06:00 +25°C° 0 mm 2 m/S 669 mmHg 57%
    07:00 +26°C° 0 mm 2 m/S 670 mmHg 54%
    08:00 +29°C° 0 mm 2 m/S 671 mmHg 45%
    09:00 +34°C° 0 mm 2 m/S 671 mmHg 36%
    10:00 +37°C° 0 mm 2 m/S 672 mmHg 28%
    11:00 +38°C° 0 mm 2 m/S 671 mmHg 25%
    12:00 +39°C° 0 mm 2 m/S 670 mmHg 22%
    13:00 +40°C° 0 mm 2 m/S 669 mmHg 20%
    14:00 +38°C° 0 mm 2 m/S 669 mmHg 21%
    15:00 +37°C° 0 mm 2 m/S 668 mmHg 23%
    16:00 +36°C° 0 mm 2 m/S 668 mmHg 25%
    17:00 +34°C° 0 mm 2 m/S 668 mmHg 29%
    18:00 +30°C° 0 mm 1 m/S 668 mmHg 33%
    19:00 +28°C° 0 mm 1 m/S 668 mmHg 38%
    20:00 +27°C° 0.3 mm 1 m/S 669 mmHg 43%
    21:00 +26°C° 0.3 mm 1 m/S 669 mmHg 49%
    22:00 +25°C° 0.3 mm 1 m/S 669 mmHg 55%
    23:00 +25°C° 0.1 mm 2 m/S 669 mmHg 59%

    29 September, Samstag

    Zeit Temperatur Niederschläge Wind Luftdruck Luftfeuchtigkeit
    00:00 +25°C° 0.1 mm 2 m/S 669 mmHg 63%
    01:00 +24°C° 0.1 mm 2 m/S 668 mmHg 67%
    02:00 +24°C° 0 mm 2 m/S 668 mmHg 70%
    03:00 +24°C° 0 mm 2 m/S 669 mmHg 73%
    04:00 +23°C° 0 mm 2 m/S 669 mmHg 76%
    05:00 +24°C° 0.4 mm 2 m/S 669 mmHg 75%
    06:00 +24°C° 0.4 mm 2 m/S 670 mmHg 74%
    07:00 +24°C° 0.4 mm 2 m/S 671 mmHg 73%
    08:00 +27°C° 0 mm 2 m/S 671 mmHg 64%
    09:00 +29°C° 0 mm 2 m/S 671 mmHg 55%
    10:00 +31°C° 0 mm 2 m/S 672 mmHg 46%
    11:00 +36°C° 0 mm 2 m/S 671 mmHg 38%
    12:00 +39°C° 0 mm 1 m/S 671 mmHg 30%
    13:00 +42°C° 0 mm 1 m/S 671 mmHg 22%
    14:00 +40°C° 0 mm 1 m/S 670 mmHg 24%
    15:00 +37°C° 0 mm 1 m/S 670 mmHg 26%
    16:00 +36°C° 0 mm 2 m/S 669 mmHg 28%
    17:00 +34°C° 0 mm 2 m/S 669 mmHg 34%
    18:00 +31°C° 0 mm 2 m/S 670 mmHg 40%
    19:00 +29°C° 0 mm 3 m/S 670 mmHg 46%
    20:00 +28°C° 0.3 mm 3 m/S 670 mmHg 53%
    21:00 +26°C° 0.3 mm 2 m/S 670 mmHg 61%
    22:00 +25°C° 0.3 mm 2 m/S 670 mmHg 69%
    23:00 +24°C° 0.3 mm 2 m/S 669 mmHg 73%
    Mehr zeigen